Thunderstorms From: 20-05-2018 15:00 Until: 21-05-2018 15:00 warning for: Thunderstorms Level: Yellow info button

Although rather usual in this region, locally or potentially dangerous phenomena are expected. (such as local winds, summer thunderstorms, rising streams or high waves) Be aware and pay attention to the latest weather updates, especially if you carry out activities exposed to weather or close to a stream or shoreline. 


Meteo18 Weather Cam more information Meteo18 Weather Cam


warning for Thunderstorms more information blitzortung!


Rain radar more information rain snow radar


Visit our other weather sites:

Template documentation
and downloads

And another site



Weather Underground History page Text

Daily Summary for January 31, 2018 Units:  English    Metric   Both
« Previous Day
Next Day »
Daily Weekly Monthly Yearly Custom
  High: Low: Average:
Temperature: TemperatureC °F 4.9 °F 7.2 °F
Dew Point: DewpointC °F 3.6 °F 5.7 °F
Humidity: Humidity % 84 % 90 %
Wind Speed: WindSpeedKMH mph 3.2 mph 15 mph
Wind Gust: WindSpeedGustKMH mph - -
Wind:- - SW
Pressure: PressurehPa in 1008.4 in -
Precipitation: 15.7 in    
Historical Graphs
 
 
Tabular Data for January 31, 2018
Time Temperature Dew Point Pressure Wind Wind Speed Wind Gust Humidity Rainfall Rate (Hourly)
TemperatureC °F DewpointC °F PressurehPa in Calm     Humidity % HourlyPrecipMM in
00:03 8.4 °F 7.3 °F 1026.3 in WSW 6.4 mph 6.4 mph 93 % 0.0 in
00:09 8.4 °F 7.3 °F 1026.3 in SW 6.4 mph 6.4 mph 93 % 0.0 in
00:15 8.4 °F 7.2 °F 1026.3 in SW 4.7 mph 8.0 mph 92 % 0.0 in
00:21 8.4 °F 7.2 °F 1026.3 in WSW 3.2 mph 8.0 mph 92 % 0.0 in
00:27 8.4 °F 7.0 °F 1026.3 in WSW 4.7 mph 6.4 mph 91 % 0.0 in
00:33 8.4 °F 7.0 °F 1026.0 in WSW 4.7 mph 8.0 mph 91 % 0.0 in
00:39 8.4 °F 6.9 °F 1026.0 in SW 4.7 mph 6.4 mph 90 % 0.0 in
00:45 8.4 °F 6.9 °F 1026.3 in West 4.7 mph 9.7 mph 90 % 0.0 in
00:51 8.4 °F 6.7 °F 1026.0 in WSW 6.4 mph 6.4 mph 89 % 0.0 in
00:57 8.4 °F 6.7 °F 1026.0 in West 9.7 mph 14.5 mph 89 % 0.0 in
01:03 8.5 °F 6.6 °F 1026.3 in WSW 3.2 mph 8.0 mph 88 % 0.0 in
01:09 8.4 °F 6.7 °F 1026.0 in WSW 6.4 mph 6.4 mph 89 % 0.0 in
01:15 8.4 °F 6.5 °F 1026.0 in South 3.2 mph 9.7 mph 88 % 0.0 in
01:21 8.4 °F 6.5 °F 1025.6 in SW 7.9 mph 8.0 mph 88 % 0.0 in
01:27 8.5 °F 6.6 °F 1025.6 in WSW 4.7 mph 11.3 mph 88 % 0.0 in
01:33 8.4 °F 6.7 °F 1025.6 in West 3.2 mph 4.8 mph 89 % 0.0 in
01:39 8.4 °F 6.7 °F 1025.6 in SW 4.7 mph 8.0 mph 89 % 0.0 in
01:45 8.3 °F 6.8 °F 1025.3 in SSW 3.2 mph 9.7 mph 90 % 0.0 in
01:51 8.2 °F 6.8 °F 1025.3 in SW 7.9 mph 8.0 mph 91 % 0.0 in
01:57 8.1 °F 6.9 °F 1025.3 in SSW 4.7 mph 8.0 mph 92 % 0.0 in
02:03 8.1 °F 6.9 °F 1025.3 in SW 6.4 mph 9.7 mph 92 % 0.0 in
02:09 8.1 °F 6.7 °F 1024.9 in West 3.2 mph 8.0 mph 91 % 0.0 in
02:15 8.1 °F 6.7 °F 1024.9 in SW 3.2 mph 11.3 mph 91 % 0.0 in
02:21 8.1 °F 6.7 °F 1024.9 in WSW 4.7 mph 9.7 mph 91 % 0.0 in
02:27 8.1 °F 6.7 °F 1024.6 in SW 7.9 mph 9.7 mph 91 % 0.0 in
02:33 8.1 °F 6.7 °F 1024.6 in WSW 4.7 mph 8.0 mph 91 % 0.0 in
02:39 8.1 °F 6.7 °F 1024.6 in WSW 4.7 mph 11.3 mph 91 % 0.0 in
02:45 8.1 °F 6.7 °F 1024.6 in West 4.7 mph 12.9 mph 91 % 0.0 in
02:51 8.1 °F 6.7 °F 1024.6 in WSW 6.4 mph 8.0 mph 91 % 0.0 in
02:57 8.1 °F 6.7 °F 1024.3 in WSW 6.4 mph 8.0 mph 91 % 0.0 in
03:03 8.2 °F 6.7 °F 1023.9 in SW 6.4 mph 14.5 mph 90 % 0.0 in
03:09 8.2 °F 6.7 °F 1023.9 in SSW 11.1 mph 17.7 mph 90 % 0.0 in
03:15 8.3 °F 6.6 °F 1023.9 in WSW 13.0 mph 17.7 mph 89 % 0.0 in
03:21 8.3 °F 6.6 °F 1023.9 in West 13.0 mph 16.1 mph 89 % 0.0 in
03:27 8.3 °F 6.6 °F 1023.9 in SW 14.3 mph 17.7 mph 89 % 0.0 in
03:33 8.2 °F 6.7 °F 1023.9 in WSW 7.9 mph 16.1 mph 90 % 0.0 in
03:39 8.2 °F 6.7 °F 1023.9 in WSW 9.7 mph 16.1 mph 90 % 0.0 in
03:45 8.2 °F 6.8 °F 1023.6 in WSW 14.3 mph 16.1 mph 91 % 0.0 in
03:51 8.1 °F 6.7 °F 1023.6 in WSW 14.3 mph 16.1 mph 91 % 0.0 in
03:57 8.1 °F 6.7 °F 1023.6 in SW 13.0 mph 17.7 mph 91 % 0.0 in
04:03 8.0 °F 6.8 °F 1023.6 in West 11.1 mph 14.5 mph 92 % 0.0 in
04:09 7.9 °F 6.7 °F 1023.6 in SW 4.7 mph 11.3 mph 92 % 0.0 in
04:15 7.9 °F 6.8 °F 1023.2 in SW 4.7 mph 9.7 mph 93 % 0.0 in
04:21 7.9 °F 6.8 °F 1023.2 in SW 11.1 mph 11.3 mph 93 % 0.0 in
04:27 7.8 °F 6.7 °F 1023.2 in SW 4.7 mph 12.9 mph 93 % 0.0 in
04:33 7.8 °F 6.7 °F 1023.2 in SW 7.9 mph 8.0 mph 93 % 0.0 in
04:39 7.8 °F 6.7 °F 1023.2 in SW 7.9 mph 9.7 mph 93 % 0.0 in
04:45 7.8 °F 6.7 °F 1023.2 in SSW 9.7 mph 14.5 mph 93 % 0.0 in
04:51 7.8 °F 6.7 °F 1023.2 in SW 7.9 mph 14.5 mph 93 % 0.0 in
04:57 7.8 °F 6.7 °F 1023.2 in SW 13.0 mph 13.0 mph 93 % 0.0 in
05:03 7.8 °F 6.6 °F 1022.9 in SW 9.7 mph 14.5 mph 92 % 0.0 in
05:09 7.9 °F 6.5 °F 1022.9 in SW 7.9 mph 14.5 mph 91 % 0.0 in
05:16 7.9 °F 6.5 °F 1022.6 in SW 4.7 mph 14.5 mph 91 % 0.0 in
05:22 7.9 °F 6.5 °F 1022.6 in SW 4.7 mph 11.3 mph 91 % 0.0 in
05:28 7.8 °F 6.4 °F 1022.6 in WSW 4.7 mph 11.3 mph 91 % 0.0 in
05:34 7.8 °F 6.4 °F 1022.2 in SW 13.0 mph 17.7 mph 91 % 0.0 in
05:40 7.9 °F 6.5 °F 1022.2 in SW 11.1 mph 16.1 mph 91 % 0.0 in
05:46 7.9 °F 6.4 °F 1022.2 in WSW 11.1 mph 11.3 mph 90 % 0.0 in
05:52 7.9 °F 6.4 °F 1022.2 in SW 9.7 mph 14.5 mph 90 % 0.0 in
05:58 7.9 °F 6.4 °F 1022.2 in SW 14.3 mph 22.5 mph 90 % 0.0 in
06:04 7.9 °F 6.4 °F 1022.2 in SW 4.7 mph 17.7 mph 90 % 0.0 in
06:10 7.9 °F 6.4 °F 1021.9 in WSW 20.9 mph 22.5 mph 90 % 0.0 in
06:16 7.9 °F 6.4 °F 1021.9 in SW 7.9 mph 14.5 mph 90 % 0.0 in
06:22 7.8 °F 6.1 °F 1021.9 in SW 16.3 mph 24.1 mph 89 % 0.0 in
06:28 7.8 °F 6.1 °F 1021.9 in WSW 14.3 mph 20.9 mph 89 % 0.0 in
06:34 7.8 °F 6.1 °F 1021.6 in WSW 9.7 mph 17.7 mph 89 % 0.0 in
06:40 7.8 °F 6.1 °F 1021.9 in SW 9.7 mph 16.1 mph 89 % 0.0 in
06:46 7.8 °F 5.9 °F 1021.6 in WSW 16.3 mph 32.2 mph 88 % 0.0 in
06:52 7.8 °F 5.8 °F 1021.6 in SW 20.9 mph 25.7 mph 87 % 0.0 in
06:58 7.8 °F 5.8 °F 1021.6 in SSW 14.3 mph 17.7 mph 87 % 0.0 in
07:04 7.7 °F 5.7 °F 1021.2 in WSW 6.4 mph 22.5 mph 87 % 0.0 in
07:10 7.7 °F 5.7 °F 1021.2 in WSW 14.3 mph 22.5 mph 87 % 0.0 in
07:16 7.7 °F 5.5 °F 1021.6 in SW 14.3 mph 25.7 mph 86 % 0.0 in
07:22 7.7 °F 5.3 °F 1021.6 in WSW 16.3 mph 27.4 mph 85 % 0.0 in
07:28 7.6 °F 5.4 °F 1021.6 in West 16.3 mph 16.3 mph 86 % 0.0 in
07:34 7.5 °F 5.1 °F 1021.2 in West 17.7 mph 17.7 mph 85 % 0.0 in
07:40 7.5 °F 5.1 °F 1021.6 in SW 11.1 mph 25.7 mph 85 % 0.0 in
07:46 7.4 °F 5.0 °F 1021.2 in West 17.7 mph 25.7 mph 85 % 0.0 in
07:52 7.4 °F 5.0 °F 1021.2 in WSW 13.0 mph 20.9 mph 85 % 0.0 in
07:58 7.4 °F 5.0 °F 1021.2 in WSW 11.1 mph 20.9 mph 85 % 0.0 in
08:04 7.3 °F 4.9 °F 1021.2 in WSW 9.7 mph 24.1 mph 85 % 0.0 in
08:10 7.3 °F 5.1 °F 1021.2 in WSW 20.9 mph 20.9 mph 86 % 0.0 in
08:16 7.3 °F 4.9 °F 1021.2 in SSW 6.4 mph 24.1 mph 85 % 0.0 in
08:22 7.3 °F 4.9 °F 1021.2 in SSW 11.1 mph 20.9 mph 85 % 0.0 in
08:28 7.2 °F 4.8 °F 1021.2 in WSW 6.4 mph 17.7 mph 85 % 0.0 in
08:34 7.2 °F 5.0 °F 1021.2 in SW 14.3 mph 22.5 mph 86 % 0.0 in
08:40 7.1 °F 4.9 °F 1021.2 in SW 22.7 mph 24.1 mph 86 % 0.0 in
08:46 7.0 °F 4.8 °F 1021.2 in SW 13.0 mph 27.4 mph 86 % 0.0 in
08:52 6.9 °F 4.7 °F 1021.2 in SW 9.7 mph 25.7 mph 86 % 0.0 in
08:58 6.9 °F 4.9 °F 1020.9 in SW 19.5 mph 19.5 mph 87 % 0.0 in
09:04 6.9 °F 4.9 °F 1020.9 in SW 16.3 mph 16.3 mph 87 % 0.0 in
09:10 6.9 °F 4.9 °F 1020.5 in WSW 17.7 mph 22.5 mph 87 % 0.0 in
09:16 6.9 °F 4.7 °F 1020.5 in SW 13.0 mph 20.9 mph 86 % 0.0 in
09:22 6.9 °F 4.7 °F 1020.5 in SW 20.9 mph 22.5 mph 86 % 0.0 in
09:28 6.9 °F 4.9 °F 1020.5 in SW 16.3 mph 20.9 mph 87 % 0.0 in
09:34 6.9 °F 4.9 °F 1020.5 in SSW 16.3 mph 25.7 mph 87 % 0.0 in
09:40 7.1 °F 5.1 °F 1020.9 in WSW 13.0 mph 16.1 mph 87 % 0.0 in
09:46 7.1 °F 4.9 °F 1020.5 in SSW 13.0 mph 22.5 mph 86 % 0.0 in
09:52 7.1 °F 4.9 °F 1020.2 in WSW 16.3 mph 32.2 mph 86 % 0.0 in
09:58 7.1 °F 5.1 °F 1020.2 in SW 17.7 mph 30.6 mph 87 % 0.0 in
10:04 7.1 °F 5.1 °F 1020.2 in SW 25.9 mph 27.4 mph 87 % 0.0 in
10:10 7.1 °F 5.1 °F 1020.2 in SW 17.7 mph 25.7 mph 87 % 0.0 in
10:16 7.0 °F 5.0 °F 1019.9 in SW 19.5 mph 24.1 mph 87 % 0.0 in
10:22 7.0 °F 5.0 °F 1019.9 in SSW 25.9 mph 25.9 mph 87 % 0.0 in
10:28 7.0 °F 5.1 °F 1019.9 in WSW 9.7 mph 29.0 mph 88 % 0.0 in
10:34 7.0 °F 5.0 °F 1019.9 in SW 17.7 mph 20.9 mph 87 % 0.0 in
10:40 7.0 °F 5.0 °F 1019.5 in SW 14.3 mph 29.0 mph 87 % 0.0 in
10:46 7.0 °F 5.0 °F 1019.9 in South 19.5 mph 22.5 mph 87 % 0.0 in
10:52 7.1 °F 4.9 °F 1019.9 in WSW 13.0 mph 19.3 mph 86 % 0.0 in
10:58 7.1 °F 4.9 °F 1019.9 in SSW 25.9 mph 29.0 mph 86 % 0.0 in
11:04 7.1 °F 4.9 °F 1019.9 in WSW 9.7 mph 19.3 mph 86 % 0.0 in
11:10 7.1 °F 4.9 °F 1019.5 in SW 35.4 mph 35.4 mph 86 % 0.0 in
11:16 7.2 °F 5.0 °F 1019.5 in SW 20.9 mph 27.4 mph 86 % 0.0 in
11:22 7.2 °F 5.0 °F 1019.5 in SSW 16.3 mph 22.5 mph 86 % 0.0 in
11:28 7.3 °F 5.1 °F 1019.5 in SW 13.0 mph 27.4 mph 86 % 0.0 in
11:34 7.3 °F 4.9 °F 1019.2 in SSW 19.5 mph 29.0 mph 85 % 0.0 in
11:40 7.4 °F 5.0 °F 1019.2 in SW 20.9 mph 25.7 mph 85 % 0.0 in
11:46 7.4 °F 5.0 °F 1019.2 in SW 16.3 mph 30.6 mph 85 % 0.0 in
11:52 7.4 °F 4.9 °F 1018.8 in SW 19.5 mph 35.4 mph 84 % 0.0 in
11:58 7.5 °F 5.0 °F 1018.8 in WSW 33.8 mph 33.8 mph 84 % 0.0 in
12:04 7.5 °F 5.0 °F 1018.8 in SW 25.9 mph 33.8 mph 84 % 0.0 in
12:10 7.5 °F 5.0 °F 1018.8 in SW 19.5 mph 40.2 mph 84 % 0.0 in
12:16 7.5 °F 5.0 °F 1018.5 in SW 22.7 mph 30.6 mph 84 % 0.0 in
12:22 7.5 °F 5.0 °F 1018.2 in SW 32.0 mph 32.2 mph 84 % 0.0 in
12:28 7.5 °F 5.0 °F 1018.2 in SW 20.9 mph 40.2 mph 84 % 0.0 in
12:34 7.5 °F 5.0 °F 1017.8 in SW 19.5 mph 33.8 mph 84 % 0.0 in
12:40 7.5 °F 5.1 °F 1017.5 in WSW 19.5 mph 33.8 mph 85 % 0.0 in
12:46 7.6 °F 5.2 °F 1017.5 in SW 19.5 mph 29.0 mph 85 % 0.0 in
12:52 7.7 °F 5.2 °F 1017.5 in SSW 28.8 mph 33.8 mph 84 % 0.0 in
12:58 7.7 °F 5.2 °F 1017.2 in WSW 20.9 mph 32.2 mph 84 % 0.0 in
13:04 7.7 °F 5.2 °F 1017.2 in WSW 16.3 mph 37.0 mph 84 % 0.0 in
13:10 7.7 °F 5.2 °F 1017.2 in SW 24.1 mph 30.6 mph 84 % 0.0 in
13:16 7.7 °F 5.2 °F 1017.2 in SW 16.3 mph 32.2 mph 84 % 0.0 in
13:22 7.7 °F 5.2 °F 1016.8 in SW 20.9 mph 37.0 mph 84 % 0.0 in
13:28 7.6 °F 5.1 °F 1016.8 in SW 38.5 mph 38.6 mph 84 % 0.0 in
13:34 7.5 °F 5.1 °F 1016.8 in SW 19.5 mph 35.4 mph 85 % 0.0 in
13:40 7.4 °F 5.0 °F 1016.5 in SW 24.1 mph 27.4 mph 85 % 0.0 in
13:46 7.5 °F 5.1 °F 1016.5 in WSW 17.7 mph 35.4 mph 85 % 0.0 in
13:52 7.5 °F 5.3 °F 1016.1 in SW 20.9 mph 32.2 mph 86 % 0.0 in
13:58 7.4 °F 5.4 °F 1016.1 in SSW 20.9 mph 32.2 mph 87 % 0.0 in
14:04 7.3 °F 5.4 °F 1016.1 in SW 11.1 mph 27.4 mph 88 % 0.0 in
14:10 7.3 °F 5.4 °F 1015.8 in SW 9.7 mph 30.6 mph 88 % 0.0 in
14:16 7.4 °F 5.4 °F 1015.5 in WSW 22.7 mph 33.8 mph 87 % 0.0 in
14:22 7.5 °F 5.5 °F 1015.5 in SW 30.6 mph 30.6 mph 87 % 0.0 in
14:28 7.6 °F 5.4 °F 1015.5 in SW 14.3 mph 29.0 mph 86 % 0.0 in
14:34 7.6 °F 5.6 °F 1015.1 in WSW 16.3 mph 35.4 mph 87 % 0.0 in
14:40 7.6 °F 5.6 °F 1015.1 in SSW 17.7 mph 29.0 mph 87 % 0.0 in
14:44 7.6 °F 5.7 °F 1015.1 in SW 16.3 mph 22.5 mph 88 % 0.0 in
14:52 7.5 °F 5.6 °F 1014.8 in SSW 24.1 mph 38.6 mph 88 % 0.0 in
14:58 7.4 °F 5.5 °F 1014.8 in SW 16.3 mph 32.2 mph 88 % 0.0 in
15:04 7.4 °F 5.5 °F 1014.8 in SW 24.1 mph 25.7 mph 88 % 0.0 in
15:10 7.5 °F 5.6 °F 1014.4 in SW 22.7 mph 29.0 mph 88 % 0.0 in
15:16 7.4 °F 5.7 °F 1014.4 in WSW 22.7 mph 32.2 mph 89 % 0.3 in
15:22 7.3 °F 5.6 °F 1014.4 in WSW 27.4 mph 43.4 mph 89 % 0.5 in
15:28 7.3 °F 5.6 °F 1014.1 in SSW 20.9 mph 38.6 mph 89 % 0.5 in
15:34 7.1 °F 5.7 °F 1014.1 in WSW 24.1 mph 32.2 mph 91 % 1.0 in
15:40 7.1 °F 5.7 °F 1014.1 in SW 16.3 mph 33.8 mph 91 % 1.0 in
15:46 7.1 °F 5.9 °F 1014.1 in SW 14.3 mph 29.0 mph 92 % 1.0 in
15:53 6.9 °F 5.7 °F 1013.8 in SW 17.7 mph 33.8 mph 92 % 1.0 in
15:59 6.8 °F 5.7 °F 1013.8 in SW 19.5 mph 32.2 mph 93 % 1.0 in
16:05 6.8 °F 5.9 °F 1013.4 in WSW 16.3 mph 37.0 mph 94 % 1.3 in
16:11 6.7 °F 5.8 °F 1013.4 in SW 24.1 mph 29.0 mph 94 % 1.3 in
16:17 6.7 °F 6.0 °F 1013.4 in SSW 13.0 mph 29.0 mph 95 % 1.0 in
16:23 6.6 °F 5.9 °F 1013.1 in SW 24.1 mph 32.2 mph 95 % 1.0 in
16:29 6.6 °F 5.9 °F 1013.1 in SW 20.9 mph 25.7 mph 95 % 0.8 in
16:35 6.7 °F 5.8 °F 1012.8 in SSW 20.9 mph 35.4 mph 94 % 0.5 in
16:41 6.8 °F 5.9 °F 1012.8 in WSW 16.3 mph 37.0 mph 94 % 0.5 in
16:47 6.8 °F 5.9 °F 1012.8 in SW 27.4 mph 32.2 mph 94 % 0.5 in
16:53 6.7 °F 5.8 °F 1012.8 in SW 24.1 mph 30.6 mph 94 % 0.5 in
16:59 6.7 °F 5.8 °F 1012.8 in SW 25.9 mph 25.9 mph 94 % 0.5 in
17:05 6.7 °F 5.8 °F 1012.4 in SW 22.7 mph 32.2 mph 94 % 0.5 in
17:11 6.7 °F 5.8 °F 1012.1 in SW 22.7 mph 29.0 mph 94 % 0.5 in
17:17 6.6 °F 5.9 °F 1012.1 in WSW 20.9 mph 25.7 mph 95 % 0.5 in
17:23 6.6 °F 5.9 °F 1012.1 in SW 27.4 mph 40.2 mph 95 % 0.5 in
17:29 6.6 °F 5.9 °F 1011.7 in WSW 17.7 mph 37.0 mph 95 % 0.5 in
17:35 6.6 °F 5.9 °F 1012.1 in SW 14.3 mph 29.0 mph 95 % 0.5 in
17:41 6.6 °F 5.9 °F 1011.7 in WSW 30.6 mph 37.0 mph 95 % 0.5 in
17:47 6.6 °F 5.9 °F 1011.7 in SW 11.1 mph 35.4 mph 95 % 0.8 in
17:53 6.6 °F 5.9 °F 1011.7 in WSW 22.7 mph 37.0 mph 95 % 0.8 in
17:59 6.6 °F 5.9 °F 1011.7 in SW 14.3 mph 25.7 mph 95 % 1.0 in
18:05 6.6 °F 5.9 °F 1011.7 in SW 20.9 mph 30.6 mph 95 % 1.3 in
18:11 6.6 °F 5.9 °F 1011.4 in SW 24.1 mph 27.4 mph 95 % 1.5 in
18:17 6.6 °F 5.9 °F 1011.4 in SW 16.3 mph 32.2 mph 95 % 1.5 in
18:23 6.6 °F 5.9 °F 1011.4 in SW 20.9 mph 25.7 mph 95 % 1.5 in
18:29 6.6 °F 5.9 °F 1011.1 in WSW 17.7 mph 38.6 mph 95 % 1.5 in
18:35 6.7 °F 6.0 °F 1011.1 in SW 16.3 mph 30.6 mph 95 % 1.8 in
18:41 6.7 °F 6.0 °F 1011.1 in SW 20.9 mph 33.8 mph 95 % 1.8 in
18:47 6.7 °F 6.0 °F 1010.7 in WSW 16.3 mph 32.2 mph 95 % 2.0 in
18:53 6.7 °F 6.0 °F 1010.7 in SW 19.5 mph 30.6 mph 95 % 2.0 in
18:59 6.7 °F 6.0 °F 1010.7 in SW 27.4 mph 37.0 mph 95 % 2.0 in
19:05 6.7 °F 6.0 °F 1010.7 in SW 17.7 mph 24.1 mph 95 % 2.0 in
19:11 6.7 °F 6.0 °F 1010.7 in SW 22.7 mph 33.8 mph 95 % 2.0 in
19:17 6.7 °F 6.0 °F 1010.7 in SW 17.7 mph 24.1 mph 95 % 2.0 in
19:23 6.7 °F 6.0 °F 1010.4 in WSW 20.9 mph 27.4 mph 95 % 2.3 in
19:29 6.8 °F 6.1 °F 1010.4 in SW 17.7 mph 32.2 mph 95 % 2.3 in
19:35 6.8 °F 6.1 °F 1010.4 in WSW 27.4 mph 27.4 mph 95 % 2.3 in
19:41 6.8 °F 6.1 °F 1010.4 in WSW 14.3 mph 38.6 mph 95 % 2.0 in
19:47 6.8 °F 6.1 °F 1010.4 in WSW 14.3 mph 35.4 mph 95 % 2.0 in
19:53 6.8 °F 6.1 °F 1010.4 in SW 19.5 mph 32.2 mph 95 % 2.0 in
19:59 6.8 °F 6.1 °F 1010.0 in West 14.3 mph 40.2 mph 95 % 2.0 in
20:05 6.8 °F 6.1 °F 1010.0 in SW 16.3 mph 27.4 mph 95 % 2.0 in
20:11 6.8 °F 6.1 °F 1010.0 in SW 20.9 mph 32.2 mph 95 % 2.3 in
20:17 6.8 °F 6.1 °F 1010.0 in WSW 24.1 mph 33.8 mph 95 % 2.3 in
20:23 6.8 °F 6.1 °F 1010.0 in SW 14.3 mph 32.2 mph 95 % 2.3 in
20:29 6.8 °F 6.1 °F 1010.0 in WSW 24.1 mph 33.8 mph 95 % 2.0 in
20:35 6.8 °F 6.1 °F 1009.7 in SW 28.8 mph 32.2 mph 95 % 2.3 in
20:41 6.8 °F 6.1 °F 1009.7 in West 17.7 mph 33.8 mph 95 % 2.3 in
20:47 6.8 °F 6.1 °F 1009.7 in SW 19.5 mph 27.4 mph 95 % 2.3 in
20:53 6.8 °F 6.1 °F 1009.7 in SW 16.3 mph 29.0 mph 95 % 2.3 in
20:59 6.9 °F 6.2 °F 1009.4 in WSW 28.8 mph 37.0 mph 95 % 2.3 in
21:05 6.9 °F 6.2 °F 1009.4 in SW 19.5 mph 25.7 mph 95 % 2.5 in
21:11 6.9 °F 6.2 °F 1009.4 in WSW 14.3 mph 22.5 mph 95 % 2.3 in
21:17 6.9 °F 6.2 °F 1009.4 in SW 30.6 mph 32.2 mph 95 % 2.3 in
21:23 6.9 °F 6.0 °F 1009.4 in West 22.7 mph 33.8 mph 94 % 2.5 in
21:29 7.0 °F 5.9 °F 1009.4 in West 11.1 mph 32.2 mph 93 % 2.8 in
21:35 7.0 °F 6.1 °F 1009.4 in West 13.0 mph 27.4 mph 94 % 2.5 in
21:41 7.0 °F 6.1 °F 1009.4 in West 22.7 mph 32.2 mph 94 % 2.5 in
21:47 7.0 °F 6.1 °F 1009.4 in West 16.3 mph 16.3 mph 94 % 2.3 in
21:53 6.9 °F 6.0 °F 1009.4 in West 4.7 mph 22.5 mph 94 % 2.5 in
21:59 6.9 °F 6.0 °F 1009.0 in West 14.3 mph 19.3 mph 94 % 2.5 in
22:05 6.9 °F 6.0 °F 1009.0 in WSW 13.0 mph 22.5 mph 94 % 2.5 in
22:11 6.9 °F 6.0 °F 1009.0 in West 11.1 mph 17.7 mph 94 % 2.5 in
22:17 6.9 °F 6.0 °F 1009.4 in WNW 9.7 mph 24.1 mph 94 % 2.5 in
22:23 6.5 °F 5.3 °F 1009.4 in WNW 14.3 mph 25.7 mph 92 % 2.8 in
22:29 5.8 °F 4.4 °F 1009.7 in WNW 27.4 mph 32.2 mph 91 % 3.8 in
22:35 5.6 °F 4.4 °F 1009.4 in WNW 13.0 mph 17.7 mph 92 % 3.8 in
22:41 5.4 °F 4.2 °F 1009.0 in WNW 6.4 mph 22.5 mph 92 % 3.8 in
22:47 5.4 °F 4.2 °F 1009.4 in NW 9.7 mph 19.3 mph 92 % 3.8 in
22:53 5.5 °F 4.1 °F 1009.0 in NNE 3.2 mph 17.7 mph 91 % 3.3 in
22:59 5.6 °F 4.2 °F 1009.0 in WNW 11.1 mph 17.7 mph 91 % 3.3 in
23:05 5.5 °F 4.0 °F 1009.0 in WNW 11.1 mph 19.3 mph 90 % 3.0 in
23:11 5.4 °F 3.7 °F 1008.7 in NW 3.2 mph 19.3 mph 89 % 3.0 in
23:17 5.4 °F 3.6 °F 1008.7 in WSW 3.2 mph 16.1 mph 88 % 3.0 in
23:23 5.4 °F 3.7 °F 1008.7 in West 4.7 mph 11.3 mph 89 % 2.3 in
23:29 5.3 °F 3.6 °F 1008.7 in WSW 4.7 mph 9.7 mph 89 % 1.5 in
23:35 5.2 °F 3.7 °F 1008.4 in SW 6.4 mph 8.0 mph 90 % 1.3 in
23:41 5.1 °F 3.8 °F 1008.4 in SW 4.7 mph 9.7 mph 91 % 1.3 in
23:47 5.1 °F 3.8 °F 1008.4 in SW 9.7 mph 9.7 mph 91 % 1.0 in
23:53 5.0 °F 3.8 °F 1008.4 in SW 4.7 mph 8.0 mph 92 % 1.0 in
23:59 4.9 °F 3.7 °F 1008.4 in SSW 4.7 mph 8.0 mph 92 % 0.8 in
Meteo18
Compliments of Weather Underground - 4 mb

Script developed by  Jim McMurry - jmcmurry@mwt.net Adapted for the template by  Wim van der Kuil - Leuven-Template.eu

You find our weather info also at:

European Weather Network

Weather Underground

Equipment we use:

Weather-station
Davis Vue

Weather-program
Meteobridge

Weather-server
Raspberry PI 2 B+

Provider
1 and 1

Davis Vue

Meteobridge

Raspberry PI 2 B+

1 and 1